User: anonymous
Location: Caltech
(34.1382°N, 118.1253°W)
Time: 21:36:51
(UTC-07:00)
Language:

Iridium 91 - Orbit

View from above orbital plane
View from above orbital plane
View from above satellite
View from above satellite

Ground track
Ground track

The orbit data is extracted from the following two-line orbital elements,

1 27372U 02005A   14245.41011616  .00000258  00000-0  85162-4 0  4642
2 27372 086.4027 353.5292 0001610 075.4233 351.2231 14.34219264665607
Epoch (UTC): 02 September 2014 09:50:34
Eccentricity: 0.0001610
inclination: 86.4027°
perigee height: 776 km
apogee height: 779 km
right ascension of ascending node: 353.5292°
argument of perigee: 75.4233°
revolutions per day: 14.34219264
mean anomaly at epoch: 351.2231°
orbit number at epoch: 66560

The dashed part of the orbit path shows where the satellite is in the earth's shadow,  

DLR